This demonstration page uses our WeatherBlox Daily Observations layout. Learn more.

Left ArrowRight Arrow

39.01783, -85.05884

Hourly Observations for November 28, 2020

Temp ( °F °C ) Dew Point ( °F °C ) Humidity (%) Winds ( mph kmh ) Pressure ( in mb ) Visibility ( mi km ) Precip ( " mm )
12:52 am 00:52 Clear 41 5 36 2.2 82 82 W 3 6 30.11 1020 10 16.0934 0 0
1:52 am 01:52 Mostly Clear 39 3.9 35 1.7 86 86 WNW 9 15 30.11 1020 10 16.0934 0 0
2:16 am 02:16 Mostly Cloudy 42 5.6 37 2.8 82 82 NW 7 11 30.15 1021 10 16.0934 0 0
2:52 am 02:52 Cloudy 41 5 36 2.2 82 82 NNW 12 19 30.13 1020 10 16.0934 0 0
3:50 am 03:50 Partly Cloudy 37 3 34 1 87 87 NNW 9 15 30.18 1022 10 16.0934 0 0
3:52 am 03:52 Partly Cloudy 38 3.3 33 0.6 83 83 NNW 8 13 30.14 1021 10 16.0934 0 0
4:23 am 04:23 Mostly Cloudy 38 3.3 32 0 79 79 NNW 7 11 30.17 1022 10 16.0934 0 0
4:52 am 04:52 Mostly Cloudy 37 2.8 32 0 82 82 NNW 8 13 30.15 1021 10 16.0934 0 0
5:09 am 05:09 Partly Cloudy 36 2.2 31 -0.6 82 82 NNW 8 13 30.19 1022 10 16.0934 0 0
5:52 am 05:52 Mostly Cloudy 37 2.8 32 0 82 82 NW 10 17 30.17 1022 10 16.0934 0 0
6:52 am 06:52 Cloudy 37 2.8 31 -0.6 79 79 NW 10 17 30.18 1022 9 14.48406 0 0
7:52 am 07:52 Mostly Sunny 35 1.7 30 -1.1 82 82 WNW 3 6 30.19 1022 7 11.26538 0 0
8:52 am 08:52 Hazy 37 2.8 32 0 82 82 NNW 5 7 30.22 1023 6 9.65604 0 0
9:52 am 09:52 Partly Cloudy 40 4.4 33 0.6 77 77 WNW 3 6 30.23 1024 7 11.26538 0 0
10:52 am 10:52 Partly Cloudy 41 5 32 0 70 70 VRB 3 6 30.24 1024 9 14.48406 0 0
11:52 am 11:52 Partly Cloudy 44 6.7 33 0.6 65 65 E 3 6 30.24 1024 10 16.0934 0 0
12:52 pm 12:52 Sunny 46 7.8 31 -0.6 56 56 W 5 7 30.22 1023 10 16.0934 0 0
1:52 pm 13:52 Sunny 47 8.3 27 -2.8 46 46 VRB 3 6 30.19 1023 10 16.0934 0 0
2:52 pm 14:52 Sunny 50 10 28 -2.2 43 43 Calm 30.18 1022 10 16.0934 0 0
3:52 pm 15:52 Sunny 49 9.4 28 -2.2 44 44 W 3 6 30.17 1022 10 16.0934 0 0
4:52 pm 16:52 Sunny 46 7.8 28 -2.2 50 50 SW 5 7 30.18 1022 10 16.0934 0 0
5:52 pm 17:52 Clear 44 6.7 26 -3.3 49 49 SSW 3 6 30.18 1022 10 16.0934 0 0
6:52 pm 18:52 Clear 41 5 27 -2.8 57 57 S 3 6 30.18 1022 10 16.0934 0 0
7:52 pm 19:52 Clear 40 4.4 27 -2.8 60 60 S 3 6 30.17 1022 10 16.0934 0 0
8:52 pm 20:52 Clear 38 3.3 28 -2.2 68 68 Calm 30.18 1022 10 16.0934 0 0
9:52 pm 21:52 Clear 38 3.3 28 -2.2 68 68 W 5 7 30.19 1022 10 16.0934 0 0
10:52 pm 22:52 Clear 37 2.8 28 -2.2 70 70 W 5 7 30.18 1022 10 16.0934 0 0
11:52 pm 23:52 Clear 35 1.7 29 -1.7 78 78 SSE 3 6 30.16 1021 10 16.0934 0 0

Powered by AerisWeather